User: anonymous   Login
Location: *
(33.8649°S, 62.1526°E)
Time: 03:15:21
(UTC+00:00)
Language:

ARIANE 5 R/B - Orbit

View from above orbital plane
View from above orbital plane
View from above satellite
View from above satellite

Ground track
Ground track

The orbit data is extracted from the following two-line orbital elements,

1 27387U 02009B   21107.48442348 -.00000001  00000-0  15132-4 0  9994
2 27387  98.6543  67.4944 0031451 301.2131  58.5973 14.36015608  2477
Epoch (UTC): 17 April 2021 11:37:34
Eccentricity: 0.0031451
inclination: 98.6543°
perigee height: 749 km
apogee height: 794 km
right ascension of ascending node: 67.4944°
argument of perigee: 301.2131°
revolutions per day: 14.36015608
mean anomaly at epoch: 58.5973°
orbit number at epoch: 247

The dashed part of the orbit path shows where the satellite is in the earth's shadow,  

DLR